Skagway, AK

11:41 PM AKDT on September 23, 2017 (GMT -0800)
Skagway

Weather History for PAGY - November, 2011

Change the Weather History Date:

Wednesday, November 30, 2011

  Actual Average Record
Temperature  
Mean Temperature 38 °F -  
Max Temperature 42 °F 33 °F 48 °F (1988)
Min Temperature 35 °F 26 °F 1 °F (1990)
Degree Days  
Heating Degree Days 26    
Moisture  
Dew Point 33 °F    
Average Humidity 82    
Maximum Humidity 93    
Minimum Humidity 67    
Precipitation  
Precipitation 0.40 in - - ()
Sea Level Pressure  
Sea Level Pressure 30.19 in    
Wind  
Wind Speed 26 mph (SSW)    
Max Wind Speed 40 mph    
Max Gust Speed 50 mph    
Visibility 8 miles    
Events Rain , Snow    
Averages and records for this station are not official NWS values.
T = Trace of Precipitation, MM = Missing Value Source: NWS Daily Summary

Daily Weather History Graph

Daily Weather History Graph

Search for Another Location

Airport or City:

Trip Planner

Search our weather history database for the weather conditions in past years. The results will help you decide how hot, cold, wet, or windy it might be!

Date:

Astronomy

Nov. 30, 2011 Rise Set
Actual Time 8:29 AM AKST 3:09 PM AKST
Civil Twilight 7:37 AM AKST 4:02 PM AKST
Nautical Twilight 6:43 AM AKST 4:55 PM AKST
Astronomical Twilight 5:54 AM AKST 5:45 PM AKST
Moon 12:01 PM AKST (11/30) 10:11 PM AKST (11/30)
Length of Visible Light 8h 24m
Length of Day
6h 39m
Waxing Crescent, 35% of the Moon is Illuminated
Nov 30
Waxing Crescent
Dec 2
First Quarter
Dec 10
Full
Dec 17
Last Quarter
Dec 24
New

Hourly Weather History & Observations

Time (AKST) Temp. Windchill Dew Point Humidity Pressure Visibility Wind Dir Wind Speed Gust Speed Precip Events Conditions
12:00 AM 35.6 °F 25.2 °F 32.0 °F 87% 30.37 in 8.0 mi SSW 18.4 mph - 0.00 in   Overcast
12:10 AM 35.6 °F 25.2 °F 32.0 °F 87% 30.38 in 10.0 mi SSW 18.4 mph - 0.00 in   Overcast
12:32 AM 35.6 °F 25.5 °F 32.0 °F 87% 30.38 in 10.0 mi SSW 17.3 mph - 0.00 in   Overcast
12:53 AM 36.0 °F 26.3 °F 32.0 °F 86% 30.38 in 10.0 mi SSW 16.1 mph 25.3 mph 0.00 in   Overcast
1:38 AM 37.4 °F 29.3 °F 32.0 °F 81% 30.39 in 10.0 mi SSW 12.7 mph 20.7 mph N/A   Overcast
1:53 AM 37.0 °F 28.9 °F 32.0 °F 82% 30.38 in 10.0 mi SSW 12.7 mph 20.7 mph N/A   Overcast
2:30 AM 37.4 °F 28.2 °F 33.8 °F 87% 30.35 in 10.0 mi SSW 16.1 mph 31.1 mph 0.00 in Rain Light Rain
3:25 AM 39.2 °F 27.4 °F 33.8 °F 81% 30.33 in 10.0 mi SSW 29.9 mph 40.3 mph 0.00 in   Overcast
3:53 AM 39.9 °F 28.6 °F 33.1 °F 77% 30.33 in 10.0 mi SSW 28.8 mph 43.7 mph 0.02 in   Overcast
4:53 AM 41.0 °F 29.7 °F 33.1 °F 73% 30.33 in 10.0 mi SSW 31.1 mph 43.7 mph N/A   Overcast
5:53 AM 41.0 °F 29.7 °F 33.1 °F 73% 30.32 in 10.0 mi SSW 31.1 mph 44.9 mph N/A   Overcast
6:53 AM 41.0 °F 29.5 °F 33.1 °F 73% 30.34 in 10.0 mi SSW 32.2 mph 42.6 mph N/A   Overcast
7:53 AM 41.0 °F 29.3 °F 34.0 °F 76% 30.34 in 10.0 mi SW 33.4 mph 44.9 mph N/A   Overcast
8:53 AM 41.0 °F 29.3 °F 33.1 °F 73% 30.33 in 10.0 mi SW 33.4 mph 46.0 mph N/A   Overcast
9:53 AM 42.1 °F 29.8 °F 33.1 °F 70% 30.32 in 10.0 mi SSW 40.3 mph 49.5 mph N/A   Overcast
10:53 AM 42.1 °F 30.8 °F 33.1 °F 70% 30.31 in 10.0 mi SSW 33.4 mph 49.5 mph N/A   Mostly Cloudy
11:53 AM 42.1 °F 30.3 °F 32.0 °F 67% 30.29 in 10.0 mi SSW 36.8 mph 48.3 mph N/A   Overcast
12:53 PM 42.1 °F 30.4 °F 32.0 °F 67% 30.27 in 10.0 mi SW 35.7 mph 49.5 mph N/A   Overcast
1:53 PM 41.0 °F 28.6 °F 33.1 °F 73% 30.23 in 10.0 mi SW 38.0 mph 46.0 mph N/A   Overcast
2:53 PM 39.9 °F 27.6 °F 34.0 °F 79% 30.23 in 9.0 mi SSW 34.5 mph 46.0 mph N/A   Overcast
3:36 PM 39.2 °F 26.5 °F 33.8 °F 81% 30.19 in 10.0 mi SSW 35.7 mph 48.3 mph 0.00 in   Overcast
3:53 PM 39.9 °F 28.2 °F 34.0 °F 79% 30.19 in 10.0 mi SSW 31.1 mph 47.2 mph 0.00 in   Overcast
4:53 PM 39.9 °F 28.4 °F 34.0 °F 79% 30.17 in 10.0 mi SSW 29.9 mph 44.9 mph N/A   Overcast
5:17 PM 39.2 °F 26.6 °F 33.8 °F 81% 30.15 in 9.0 mi SSW 34.5 mph 46.0 mph N/A   Overcast
5:27 PM 39.2 °F 26.3 °F 33.8 °F 81% 30.14 in 10.0 mi SSW 36.8 mph 47.2 mph N/A   Overcast
5:53 PM 39.9 °F 28.6 °F 34.0 °F 79% 30.13 in 10.0 mi SSW 28.8 mph 46.0 mph 0.00 in Rain Light Rain
6:26 PM 37.4 °F 24.8 °F 33.8 °F 87% 30.11 in 9.0 mi SSW 31.1 mph 41.4 mph 0.00 in Snow Light Snow
6:35 PM 37.4 °F 25.2 °F 33.8 °F 87% 30.10 in 7.0 mi SSW 28.8 mph 38.0 mph 0.00 in Snow Light Snow
6:45 PM 39.2 °F 27.2 °F 33.8 °F 81% 30.09 in 8.0 mi SSW 31.1 mph 42.6 mph 0.00 in   Overcast
6:53 PM 39.2 °F 28.3 °F 33.8 °F 81% 30.08 in 10.0 mi SSW 25.3 mph 47.2 mph N/A Rain Light Rain
7:03 PM 39.2 °F 27.0 °F 33.8 °F 81% 30.07 in 10.0 mi SSW 32.2 mph 41.4 mph 0.00 in Rain Light Rain
7:53 PM 37.9 °F 25.5 °F 34.0 °F 86% 30.04 in 5.0 mi SSW 31.1 mph 47.2 mph 0.02 in Snow Light Snow
8:53 PM 37.9 °F 25.3 °F 35.1 °F 89% 29.99 in 3.0 mi SSW 32.2 mph 46.0 mph 0.04 in Snow Light Snow
9:08 PM 37.4 °F 24.4 °F 35.6 °F 93% 29.97 in 3.0 mi SSW 33.4 mph 46.0 mph 0.02 in Snow Light Snow
9:29 PM 37.4 °F 24.0 °F 35.6 °F 93% 29.95 in 2.0 mi SSW 35.7 mph 47.2 mph 0.04 in Snow Light Snow
9:53 PM 36.0 °F 23.2 °F 34.0 °F 93% 29.95 in 2.0 mi SSW 28.8 mph 47.2 mph 0.11 in Snow Light Snow
10:13 PM 35.6 °F 23.0 °F 33.8 °F 93% 29.94 in 2.0 mi SSW 27.6 mph 42.6 mph 0.05 in Snow Light Snow
10:33 PM 35.6 °F 21.9 °F 33.8 °F 93% 29.91 in 3.0 mi SSW 33.4 mph 42.6 mph 0.10 in Snow Light Snow
10:53 PM 37.0 °F 23.3 °F 34.0 °F 89% 29.89 in 3.0 mi SSW 36.8 mph 46.0 mph 0.13 in Snow Light Snow
11:53 PM 37.0 °F 23.9 °F 34.0 °F 89% 29.84 in 4.0 mi SSW 33.4 mph 47.2 mph 0.08 in Snow Light Snow